Погода в Средней Усьве

Россия / Пермский край     58°59′50″N   58°55′38″E
темп.,
°C
ветер,
м/с
пор.,
м/с
влажн.,
%
обл.,
%
осадки,
мм/ч
давл.,
гПа
погр.,
м
17 мая, пн
пн1723:00+21юз5154781 0.0 1014841
02:00+18з395895 0.0 1014311
05:00+15юз2272100 0.0 101449
08:00+20з3105632 0.0 1013660
11:00+22зюз71445100 0.1 10132037
14:00+23з71441100 0.0 10132806
17:00+23з6123928 0.0 10132669
20:00+19зсз5115187 0.0 10131362
18 мая, вт
вт1823:00+16зсз396596 0.0 1014536
02:00+13зсз3881100 0.0 1014387
05:00+12сз31089100 0.0 1015523
08:00+13сз477998 0.0 1016651
11:00+11всв4485100 0.5 1019515
14:00+9всв3583100 0.1 1022445
17:00+12св347050 0.1 1023735
20:00+13св356298 0.0 10231096
19 мая, ср
ср1923:00+7всв22880 0.0 102632
02:00+6св11930 0.0 102610
05:00+5сз00924 0.0 102710
08:00+11ю11635 0.0 1027357
11:00+17юз01415 0.0 10261089
14:00+21зсз113399 0.0 10241688
17:00+21зсз223365 0.0 10231858
20:00+18зсз254650 0.0 1023172
20 мая, чт
чт2023:00+13з21644 0.0 102412
02:00+11з21701 0.0 102311
05:00+10з22722 0.0 102317
08:00+17з38480 0.0 1023541
11:00+20зсз46370 0.0 10221181
14:00+23зсз45280 0.0 10211543
17:00+24зсз44260 0.0 10201675
20:00+20зсз24410 0.0 102076
21 мая, пт
пт2123:00+14з22540 0.0 102112
02:00+13зюз22531 0.0 102111
05:00+12з21570 0.0 102112
08:00+19з13410 0.0 1021278
11:00+23з33320 0.0 10201442
14:00+25з33280 0.0 10191911
17:00+25зюз33275 0.0 10182200
20:00+22зюз26405 0.0 1018184